Content
SEND FEEDBACK

Daily
Averages
Monthly
Summary
Canada

BIBLE HILL, NOVA SCOTIA


Home > North America > Canada > Nova Scotia
Elevation: 131 feet     Latitude: 45 22N     Longitude: 063 16W

WEATHER
 
SELECT A DAY
Number of Records: 97,525;   Date Range: 6/19/04 - 9/22/14
 
SHARE

PRINT THIS DATA

[ ← Previous Day ]
WEATHER ALMANAC - FEBRUARY 8, 2013
[ Next Day → ]
[ °C ]   °F
Weather ElementAverageHighLow
Temperature0.3 °F12.7 °F (5:00 pm)-16.2 °F (6:00 am)
Dewpoint-10.9 °F (10:00 pm)-22 °F (4:00 am)
Humidity58.4 %78 % (7:00 am)29 % (2:00 pm)
Barometer30.55 in30.64 in (9:00 am)30.35 in (11:00 pm)
Wind Speed4.3 mph11.5 mph (11:00 pm)
Weather ElementAverage
Wind DirectionSE (133.8 °)

Weather ElementTotal
Precipitation0.09 in
Heating Degree Days66.8 (Base 65)
Averaged from 27 records on February 8, 2013
WEATHER CONDITIONS BREAKOUT
WIND DIRECTION BREAKOUT
WEATHER BY HOUR - FEBRUARY 8, 2013
[ °C ]   °F
Local TimeTemperatureDewpointHumidityBarometerVisibilityWind DirectionWind SpeedGust SpeedPrecipitationEventsConditions
1:00 AM-5.1 °F-18.0 °F54 %30.56 inWNW (290°)8.1 mph
2:00 AM-7.0 °F-19.0 °F40 %30.59 inWNW (290°)9.2 mph
2:00 AM-7.1 °F-18.6 °F57 %30.59 inWNW (290°)9.2 mph
3:00 AM-10.1 °F-18.0 °F68 %30.58 inNW (310°)4.6 mph
4:00 AM-15.5 °F-22.0 °F73 %30.59 inNNW (330°)2.3 mph
5:00 AM-15.9 °F-21.8 °F74 %30.61 inSSW (210°)1.2 mph
6:00 AM-16.2 °F-21.8 °F76 %30.62 inCalm0.03 in
7:00 AM-15.9 °F-20.9 °F78 %30.62 inENE (60°)3.5 mph0.02 in
8:00 AM-16.0 °F-22.0 °F63 %30.61 inENE (60°)2.3 mph
8:00 AM-15.9 °F-21.6 °F75 %30.61 inENE (60°)2.3 mph
9:00 AM-10.5 °F-17.5 °F71 %30.64 inSW (230°)1.2 mph0.03 in
10:00 AM-2.4 °F-12.5 °F62 %30.62 inSSE (150°)2.3 mph
11:00 AM3.0 °F-10.1 °F54 %30.62 inESE (110°)2.3 mph
12:00 PM7.0 °F-9.4 °F47 %30.60 inSouth (190°)1.2 mph
1:00 PM8.1 °F-8.5 °F47 %30.59 inSE (140°)1.2 mph
2:00 PM12.0 °F-6.0 °F29 %30.56 inCalm
2:00 PM12.4 °F-5.8 °F44 %30.56 inCalm
3:00 PM10.6 °F-3.5 °F53 %30.56 inSouth (180°)3.5 mph
4:00 PM12.2 °F-4.4 °F48 %30.54 inENE (60°)1.2 mph
5:00 PM12.7 °F-2.4 °F51 %30.52 inNE (50°)1.2 mph
6:00 PM11.1 °F-2.6 °F54 %30.49 inNE (50°)8.1 mph0.01 in
7:00 PM9.3 °F-1.8 °F61 %30.48 inENE (60°)8.1 mph
8:00 PM9.0 °F-1.0 °F49 %30.46 inENE (70°)8.1 mph
8:00 PM9.1 °F-1.1 °F63 %30.46 inENE (70°)8.1 mph
9:00 PM9.1 °F-2.4 °F60 %30.45 inEast (80°)6.9 mph
10:00 PM9.3 °F0.0 °F66 %30.41 inENE (70°)9.2 mph
11:00 PM9.7 °F-2.2 °F59 %30.35 inENE (70°)11.5 mph
Hourly data recorded from CZDB, located miles away from Bible Hill, Nova Scotia







STORIES FROM OUR PARTNERS